Change the Weather History Date:

Sunday, February 23, 2014

  Actual Average Record
Temperature  
Mean Temperature 60 °F -  
Max Temperature 64 °F 65 °F 75 °F (2007)
Min Temperature 57 °F 47 °F 37 °F (2009)
Degree Days  
Heating Degree Days 4    
Growing Degree Days 10 (Base 50)    
Moisture  
Dew Point 56 °F    
Average Humidity 78    
Maximum Humidity 83    
Minimum Humidity 72    
Precipitation  
Precipitation 1.06 in - - ()
Sea Level Pressure  
Sea Level Pressure 30.04 in    
Wind  
Wind Speed 5 mph (ESE)    
Max Wind Speed 15 mph    
Max Gust Speed -    
Visibility 7 miles    
Events Rain , Thunderstorm    
Averages and records for this station are not official NWS values.
T = Trace of Precipitation, MM = Missing Value Source: NWS Daily Summary

Daily Weather History Graph

Daily Weather History Graph

Search for Another Location

Airport or City:

Trip Planner

Search our weather history database for the weather conditions in past years. The results will help you decide how hot, cold, wet, or windy it might be!

Date:

Astronomy

Feb. 23, 2014 Rise Set
Actual Time 6:14 AM CST 5:37 PM CST
Civil Twilight 5:50 AM CST 6:01 PM CST
Nautical Twilight 5:22 AM CST 6:29 PM CST
Astronomical Twilight 4:54 AM CST 6:56 PM CST
Moon 12:59 AM CST (2/23) 11:51 AM CST (2/23)
Length of Visible Light 12h 10m
Length of Day
11h 22m
Last Quarter, 38% of the Moon is Illuminated
Feb 23
Last Quarter
Mar 1
New
Mar 8
First Quarter
Mar 16
Full
Mar 23
Last Quarter

Hourly Weather History & Observations

Time (CST) Temp. Dew Point Humidity Pressure Visibility Wind Dir Wind Speed Gust Speed Precip Events Conditions
12:43 AM 57.2 °F 48.2 °F 72% 30.06 in 10.0 mi ESE 1.2 mph - N/A   Scattered Clouds
12:58 AM 57.2 °F 50.0 °F 77% 30.06 in 10.0 mi ESE 2.3 mph - N/A   Mostly Cloudy
1:43 AM 57.2 °F 50.0 °F 77% 30.04 in 10.0 mi ESE 1.2 mph - N/A   Mostly Cloudy
1:58 AM 57.2 °F 50.0 °F 77% 30.05 in 10.0 mi Calm Calm - N/A   Scattered Clouds
2:03 AM 57.2 °F 50.0 °F 77% 30.05 in 10.0 mi Calm Calm - N/A   Mostly Cloudy
2:58 AM 57.2 °F 50.5 °F 78% 30.04 in 10.0 mi East 3.5 mph - N/A   Mostly Cloudy
3:03 AM 57.2 °F 50.0 °F 77% 30.03 in 10.0 mi East 2.3 mph - N/A   Mostly Cloudy
3:43 AM 57.2 °F 50.0 °F 77% 30.02 in 10.0 mi NE 1.2 mph - N/A   Overcast
3:53 AM 59.0 °F 50.0 °F 72% 30.02 in 10.0 mi ESE 3.5 mph - N/A   Overcast
3:58 AM 58.5 °F 50.7 °F 75% 30.03 in 10.0 mi ESE 4.6 mph - N/A   Overcast
4:13 AM 59.0 °F 51.8 °F 77% 30.00 in 10.0 mi ESE 4.6 mph - N/A Rain , Thunderstorm Light Rain
4:24 AM 59.0 °F 51.8 °F 77% 30.01 in 8.0 mi ESE 3.5 mph - N/A Rain , Thunderstorm Light Thunderstorms and Rain
4:39 AM 59.0 °F 51.8 °F 77% 30.03 in 5.0 mi South 3.5 mph - N/A Rain , Thunderstorm Heavy Thunderstorms and Rain
4:44 AM 59.0 °F 53.6 °F 82% 30.03 in 4.0 mi SE 3.5 mph - N/A Rain , Thunderstorm Thunderstorms and Rain
4:54 AM 59.0 °F 53.6 °F 82% 30.04 in 2.0 mi SE 6.9 mph - N/A Rain , Thunderstorm Heavy Thunderstorms and Rain
4:58 AM 60.8 °F 53.6 °F 77% 30.04 in 2.0 mi East 8.1 mph - 0.11 in Rain , Thunderstorm Thunderstorms and Rain
5:08 AM 60.8 °F 55.4 °F 82% 30.02 in 2.0 mi West 9.2 mph - N/A Rain , Thunderstorm Thunderstorms and Rain
5:13 AM 60.8 °F 55.4 °F 82% 30.02 in 5.0 mi SW 5.8 mph - N/A Rain , Thunderstorm Thunderstorms and Rain
5:18 AM 62.6 °F 57.2 °F 82% 30.03 in 7.0 mi South 8.1 mph - N/A Rain , Thunderstorm Light Thunderstorms and Rain
5:19 AM 62.6 °F 57.2 °F 82% 30.03 in 7.0 mi SSE 9.2 mph - N/A Rain , Thunderstorm Light Rain
5:29 AM 62.6 °F 57.2 °F 82% 30.02 in 8.0 mi South 10.4 mph - N/A Rain , Thunderstorm Light Rain
5:34 AM 62.6 °F 57.2 °F 82% 30.01 in 10.0 mi SSE 10.4 mph - N/A Rain Light Rain
5:58 AM 63.5 °F 57.6 °F 81% 30.02 in 10.0 mi South 10.4 mph - 0.12 in   Light Drizzle
6:13 AM 64.4 °F 57.2 °F 77% 30.01 in 10.0 mi South 9.2 mph - N/A   Light Drizzle
6:33 AM 64.4 °F 57.2 °F 77% 30.00 in 10.0 mi SSE 11.5 mph - N/A Thunderstorm Light Drizzle
6:43 AM 64.4 °F 57.2 °F 77% 30.01 in 10.0 mi SSE 6.9 mph - N/A Thunderstorm Light Drizzle
6:53 AM 64.4 °F 59.0 °F 83% 30.05 in 10.0 mi Variable 6.9 mph - N/A Thunderstorm Light Drizzle
6:58 AM 64.4 °F 57.2 °F 77% 30.06 in 10.0 mi North 5.8 mph - 0.00 in Rain , Thunderstorm Light Rain
7:03 AM 62.6 °F 57.2 °F 82% 30.06 in 10.0 mi North 8.1 mph - N/A Rain , Thunderstorm Rain
7:06 AM 62.6 °F 57.2 °F 82% 30.06 in 7.0 mi North 8.1 mph - N/A Rain , Thunderstorm Heavy Thunderstorms and Rain
7:11 AM 62.6 °F 57.2 °F 82% 30.07 in 4.0 mi North 10.4 mph - N/A Rain , Thunderstorm Heavy Thunderstorms and Rain
7:16 AM 62.6 °F 55.4 °F 77% 30.06 in 1.5 mi North 9.2 mph - N/A Rain , Thunderstorm Heavy Thunderstorms and Rain
7:21 AM 60.8 °F 55.4 °F 82% 30.04 in 1.0 mi NE 10.4 mph - N/A Rain , Thunderstorm Heavy Thunderstorms and Rain
7:26 AM 60.8 °F 55.4 °F 82% 30.07 in 1.2 mi North 8.1 mph - N/A Rain , Thunderstorm Heavy Thunderstorms and Rain
7:31 AM 60.8 °F 55.4 °F 82% 30.10 in 0.8 mi WNW 9.2 mph - N/A Rain , Thunderstorm Heavy Thunderstorms and Rain
7:36 AM 60.8 °F 55.4 °F 82% 30.09 in 0.2 mi WNW 4.6 mph - N/A Rain , Thunderstorm Heavy Thunderstorms and Rain
7:41 AM 62.6 °F 55.4 °F 77% 30.08 in 0.2 mi WNW 3.5 mph - N/A Rain , Thunderstorm Heavy Thunderstorms and Rain
7:46 AM 62.6 °F 55.4 °F 77% 30.08 in 0.8 mi SE 3.5 mph - N/A Rain , Thunderstorm Heavy Thunderstorms and Rain
7:51 AM 62.6 °F 55.4 °F 77% 30.08 in 0.8 mi SSE 5.8 mph - N/A Rain , Thunderstorm Thunderstorms and Rain
7:56 AM 62.6 °F 55.4 °F 77% 30.08 in 2.0 mi Variable 2.3 mph - N/A Rain , Thunderstorm Thunderstorms and Rain
7:58 AM 62.6 °F 55.4 °F 77% 30.09 in 2.5 mi SW 1.2 mph - 0.11 in Rain , Thunderstorm Thunderstorms and Rain
8:08 AM 62.6 °F 57.2 °F 82% 30.09 in 3.0 mi West 4.6 mph - N/A Rain , Thunderstorm Thunderstorms and Rain
8:18 AM 62.6 °F 57.2 °F 82% 30.09 in 5.0 mi South 6.9 mph - N/A Rain , Thunderstorm Light Thunderstorms and Rain
8:24 AM 62.6 °F 57.2 °F 82% 30.09 in 8.0 mi ESE 3.5 mph - N/A Rain Light Rain
8:34 AM 62.6 °F 57.2 °F 82% 30.09 in 10.0 mi East 1.2 mph - N/A Rain , Thunderstorm Light Rain
8:44 AM 62.6 °F 55.4 °F 77% 30.09 in 10.0 mi East 3.5 mph - N/A   Light Drizzle
8:58 AM 62.6 °F 56.3 °F 80% 30.10 in 10.0 mi ESE 2.3 mph - 0.07 in Rain Light Rain
9:13 AM 62.6 °F 55.4 °F 77% 30.09 in 10.0 mi SE 3.5 mph - N/A   Light Drizzle
9:28 AM 62.6 °F 55.4 °F 77% 30.08 in 10.0 mi SE 2.3 mph - N/A   Light Drizzle
9:58 AM 63.0 °F 56.3 °F 79% 30.11 in 10.0 mi North 2.3 mph - 0.01 in Rain Light Rain
10:13 AM 62.6 °F 57.2 °F 82% 30.09 in 4.0 mi North 3.5 mph - N/A Rain Light Rain
10:18 AM 62.6 °F 57.2 °F 82% 30.09 in 6.0 mi North 2.3 mph - N/A Rain Light Rain
10:33 AM 64.4 °F 57.2 °F 77% 30.08 in 10.0 mi NNE 3.5 mph - N/A   Light Drizzle
10:38 AM 64.4 °F 57.2 °F 77% 30.08 in 10.0 mi Calm Calm - N/A   Light Drizzle
10:43 AM 64.4 °F 57.2 °F 77% 30.09 in 10.0 mi Calm Calm - N/A   Light Drizzle
10:53 AM 64.4 °F 57.2 °F 77% 30.09 in 10.0 mi SSE 2.3 mph - N/A   Light Drizzle
10:58 AM 64.4 °F 57.2 °F 77% 30.09 in 9.0 mi Variable 1.2 mph - 0.03 in Rain Light Rain
11:03 AM 64.4 °F 57.2 °F 77% 30.08 in 8.0 mi NE 2.3 mph - N/A Rain , Thunderstorm Light Rain
11:04 AM 64.4 °F 57.2 °F 77% 30.08 in 8.0 mi NE 2.3 mph - N/A Rain , Thunderstorm Light Thunderstorms and Rain
11:21 AM 64.4 °F 57.2 °F 77% 30.08 in 5.0 mi SSE 2.3 mph - N/A Rain Rain
11:26 AM 64.4 °F 57.2 °F 77% 30.07 in 4.0 mi SE 4.6 mph - N/A Rain Light Rain
11:36 AM 62.6 °F 57.2 °F 82% 30.05 in 7.0 mi ESE 5.8 mph - N/A Rain Light Rain
11:41 AM 62.6 °F 57.2 °F 82% 30.05 in 7.0 mi ESE 4.6 mph - N/A Rain Rain
11:58 AM 63.3 °F 56.7 °F 79% 30.05 in 7.0 mi East 4.6 mph - 0.10 in Rain Light Rain
12:08 PM 62.6 °F 57.2 °F 82% 30.04 in 10.0 mi ESE 6.9 mph - N/A Rain Light Rain
12:58 PM 64.4 °F 57.2 °F 77% 30.07 in 1.2 mi South 4.6 mph - 0.03 in Rain Heavy Rain
1:03 PM 64.4 °F 57.2 °F 77% 30.06 in 1.0 mi South 10.4 mph - N/A Rain Heavy Rain
1:08 PM 64.4 °F 57.2 °F 77% 30.05 in 1.5 mi South 11.5 mph - N/A Rain Rain
1:13 PM 64.4 °F 57.2 °F 77% 30.04 in 1.2 mi SE 10.4 mph - N/A Rain Heavy Rain
1:18 PM 64.4 °F 57.2 °F 77% 30.04 in 1.5 mi SE 8.1 mph - N/A Rain Light Rain
1:23 PM 62.6 °F 57.2 °F 82% 30.05 in 6.0 mi SSE 8.1 mph - N/A Rain Light Rain
1:25 PM 62.6 °F 57.2 °F 82% 30.04 in 10.0 mi SE 5.8 mph - N/A Rain , Thunderstorm Light Thunderstorms and Rain
1:30 PM 62.6 °F 55.4 °F 77% 30.04 in 10.0 mi East 5.8 mph - N/A Rain , Thunderstorm Light Thunderstorms and Rain
1:40 PM 62.6 °F 57.2 °F 82% 30.03 in 10.0 mi Variable 3.5 mph - N/A   Light Drizzle
1:50 PM 62.6 °F 57.2 °F 82% 30.03 in 4.0 mi Calm Calm - N/A Rain Rain
1:55 PM 64.4 °F 57.2 °F 77% 30.03 in 2.0 mi South 2.3 mph - N/A Rain Rain
1:58 PM 64.4 °F 57.2 °F 77% 30.04 in 1.8 mi SSE 4.6 mph - 0.14 in Rain Light Rain
2:03 PM 64.4 °F 57.2 °F 77% 30.02 in 5.0 mi SE 4.6 mph - N/A Rain Light Rain
2:08 PM 64.4 °F 57.2 °F 77% 30.02 in 10.0 mi ESE 4.6 mph - N/A Rain Light Rain
2:19 PM 64.4 °F 57.2 °F 77% 30.02 in 10.0 mi SE 6.9 mph - N/A Rain , Thunderstorm Light Thunderstorms and Rain
2:34 PM 64.4 °F 57.2 °F 77% 30.01 in 4.0 mi East 3.5 mph - N/A Rain , Thunderstorm Thunderstorms and Rain
2:39 PM 64.4 °F 57.2 °F 77% 30.02 in 3.0 mi ESE 2.3 mph - N/A Rain , Thunderstorm Light Thunderstorms and Rain
2:40 PM 64.4 °F 57.2 °F 77% 30.02 in 3.0 mi ESE 2.3 mph - N/A Rain Light Rain
2:45 PM 64.4 °F 57.2 °F 77% 30.01 in 3.0 mi ESE 4.6 mph - N/A Rain Heavy Rain
2:50 PM 64.4 °F 57.2 °F 77% 30.01 in 3.0 mi ESE 6.9 mph - N/A Rain Light Rain
2:55 PM 64.4 °F 57.2 °F 77% 30.01 in 4.0 mi ESE 5.8 mph - N/A Rain Rain
2:58 PM 63.9 °F 57.0 °F 78% 30.02 in 4.0 mi ESE 5.8 mph - 0.11 in Rain Heavy Rain
3:03 PM 64.4 °F 57.2 °F 77% 30.01 in 4.0 mi ESE 5.8 mph - N/A Rain Light Rain
3:08 PM 64.4 °F 57.2 °F 77% 30.01 in 7.0 mi East 4.6 mph - N/A Rain Light Rain
3:13 PM 64.4 °F 57.2 °F 77% 30.01 in 10.0 mi NE 3.5 mph - N/A Rain Light Rain
3:23 PM 64.4 °F 57.2 °F 77% 30.01 in 8.0 mi ESE 5.8 mph - N/A Rain , Thunderstorm Light Rain
3:28 PM 64.4 °F 57.2 °F 77% 30.01 in 8.0 mi East 5.8 mph - N/A Rain , Thunderstorm Light Rain
3:33 PM 64.4 °F 57.2 °F 77% 30.02 in 5.0 mi SE 4.6 mph - N/A Rain , Thunderstorm Rain
3:38 PM 64.4 °F 57.2 °F 77% 30.02 in 4.0 mi SE 5.8 mph - N/A Rain , Thunderstorm Light Rain
3:43 PM 64.4 °F 57.2 °F 77% 30.02 in 6.0 mi ENE 4.6 mph - N/A Rain Light Rain
3:48 PM 64.4 °F 57.2 °F 77% 30.02 in 7.0 mi Variable 1.2 mph - N/A Rain Light Rain
3:58 PM 63.9 °F 57.0 °F 78% 30.02 in 10.0 mi East 4.6 mph - 0.12 in   Light Drizzle
4:08 PM 64.4 °F 57.2 °F 77% 30.01 in 10.0 mi SE 4.6 mph - N/A   Light Drizzle
4:18 PM 64.4 °F 57.2 °F 77% 30.02 in 10.0 mi SSE 5.8 mph - N/A   Light Drizzle
4:33 PM 64.4 °F 57.2 °F 77% 30.01 in 10.0 mi ESE 5.8 mph - N/A   Light Drizzle
4:43 PM 64.4 °F 57.2 °F 77% 30.02 in 10.0 mi SE 2.3 mph - N/A   Light Drizzle
4:53 PM 64.4 °F 57.2 °F 77% 30.02 in 10.0 mi SE 2.3 mph - N/A   Light Drizzle
4:58 PM 63.5 °F 56.7 °F 78% 30.03 in 10.0 mi ESE 5.8 mph - 0.00 in   Light Drizzle
5:13 PM 64.4 °F 57.2 °F 77% 30.01 in 10.0 mi East 2.3 mph - N/A   Light Drizzle
5:43 PM 64.4 °F 57.2 °F 77% 30.01 in 9.0 mi ESE 4.6 mph - N/A Rain Rain
5:48 PM 64.4 °F 57.2 °F 77% 30.01 in 8.0 mi SE 6.9 mph - N/A Rain Rain
5:58 PM 63.7 °F 56.8 °F 78% 30.03 in 7.0 mi SSE 3.5 mph - 0.02 in Rain Rain
6:03 PM 64.4 °F 57.2 °F 77% 30.02 in 7.0 mi SSE 6.9 mph - N/A Rain Rain
6:08 PM 64.4 °F 57.2 °F 77% 30.02 in 7.0 mi SSE 8.1 mph - N/A Rain Rain
6:23 PM 62.6 °F 57.2 °F 82% 30.02 in 8.0 mi SSE 6.9 mph - N/A Rain Rain
6:28 PM 62.6 °F 57.2 °F 82% 30.02 in 8.0 mi South 9.2 mph - N/A Rain Light Rain
6:33 PM 62.6 °F 55.4 °F 77% 30.01 in 9.0 mi SSE 12.7 mph - N/A Rain Light Rain
6:38 PM 62.6 °F 55.4 °F 77% 30.01 in 10.0 mi SSE 13.8 mph - N/A Rain Light Rain
6:53 PM 62.6 °F 55.4 °F 77% 30.00 in 10.0 mi SE 11.5 mph - N/A   Light Drizzle
6:58 PM 63.0 °F 55.9 °F 78% 30.01 in 10.0 mi SE 11.5 mph - 0.09 in   Light Drizzle
7:28 PM 62.6 °F 55.4 °F 77% 29.97 in 10.0 mi SSE 15.0 mph - N/A   Light Drizzle
7:58 PM 62.8 °F 55.2 °F 76% 30.02 in 10.0 mi SSE 8.1 mph - 0.00 in   Light Drizzle
8:13 PM 62.6 °F 55.4 °F 77% 30.00 in 10.0 mi SSE 13.8 mph - N/A   Light Drizzle
8:18 PM 62.6 °F 55.4 °F 77% 29.99 in 10.0 mi SSE 13.8 mph - N/A   Light Drizzle
8:33 PM 62.6 °F 55.4 °F 77% 29.98 in 10.0 mi SE 11.5 mph - N/A   Light Drizzle
8:58 PM 62.6 °F 55.0 °F 76% 30.01 in 10.0 mi ESE 5.8 mph - 0.00 in   Light Drizzle
9:53 PM 62.6 °F 55.4 °F 77% 30.03 in 10.0 mi ENE 3.5 mph - N/A   Light Drizzle
9:58 PM 62.2 °F 54.9 °F 77% 30.04 in 10.0 mi ENE 3.5 mph - 0.00 in   Light Drizzle
10:58 PM 61.9 °F 54.5 °F 77% 30.05 in 10.0 mi North 4.6 mph - 0.00 in   Light Drizzle
11:13 PM 62.6 °F 55.4 °F 77% 30.03 in 10.0 mi North 4.6 mph - N/A   Light Drizzle
11:23 PM 62.6 °F 55.4 °F 77% 30.03 in 10.0 mi North 3.5 mph - N/A   Light Drizzle
11:58 PM 62.2 °F 54.3 °F 75% 30.04 in 10.0 mi Calm Calm - 0.00 in   Light Drizzle